Regional Weather Roundup
Issued by NWS

Home | Current Version | Previous Version | Text Only | Print | Product List | Glossary Off
Versions: 1 2 3 4 5 6 7 8 9 10 11 12 13 14 15 16 17 18 19 20 21 22 23 24 25 26 27 28 29 30 31 32 33 34 35 36 37 38 39 40 41 42 43 44 45 46 47 48 49 50

000
ASUS43 KLMK 191310
RWRKY
KENTUCKY REGIONAL WEATHER ROUNDUP
NATIONAL WEATHER SERVICE LOUISVILLE KY
900 AM EDT THU APR 19 2018

NOTE "FAIR" INDICATES FEW OR NO CLOUDS BELOW 12,000 FEET
WITH NO SIGNIFICANT WEATHER AND/OR OBSTRUCTIONS TO VISIBILITY.

KYZ001>023-026-027-061>063-070>075-191400-
WESTERN AND SOUTH CENTRAL KENTUCKY

CITY           SKY/WX    TMP DP  RH WIND       PRES   REMARKS
PADUCAH        PTSUNNY   42  23  46 N17G31    30.26R
HENDERSON      CLOUDY    39  27  62 NW15G21   30.25R WCI  31
OWENSBORO      CLOUDY    39  27  62 N12G21    30.23R WCI  32
HOPKINSVILLE   PTSUNNY   39  24  53 NW9       30.21R WCI  33
BOWLING GREEN  CLOUDY    41  27  57 NW10G20   30.20R
GLASGOW        CLOUDY    39  28  63 NW7       30.17R WCI  34
$$

KYZ024-025-028>034-038-045-046-053-191400-
NORTH CENTRAL KENTUCKY

CITY           SKY/WX    TMP DP  RH WIND       PRES   REMARKS
LOUISVILLE/SDF PTSUNNY   40  28  62 W15G25    30.17R WCI  32
LOUISVILLE/LOU CLOUDY    40  30  67 W14G22    30.17R WCI  32
FORT KNOX      CLOUDY    40  27  61 W10       30.17R WCI  33
$$

KYZ035>037-039>044-047>052-055>060-089>105-191400-
NORTHEAST KENTUCKY

CITY           SKY/WX    TMP DP  RH WIND       PRES   REMARKS
LEXINGTON      CLOUDY    38  27  64 W15G23    30.11R WCI  29
COVINGTON      CLOUDY    37  30  75 W18       30.08R WCI  27
FRANKFORT      CLOUDY    39  26  59 W12G23    30.11R WCI  32
$$

KYZ054-064>069-076>088-106>120-191400-
SOUTHEAST KENTUCKY

CITY           SKY/WX    TMP DP  RH WIND       PRES   REMARKS
JACKSON        CLOUDY    38  27  64 NW10G23   30.06R WCI  31
LONDON         CLOUDY    40  28  62 NW15G22   30.10R WCI  32
SOMERSET       CLOUDY    39  28  65 NW6       30.14R WCI  35
MIDDLESBORO    CLOUDY    43  33  68 NW14G20   30.08R
MONTICELLO     CLOUDY    40  28  62 NW13      30.15R WCI  32
$$




USA.gov is the U.S. government's official web portal to all federal, state and local government web resources and services.